Location: ???????
(38.3360°N, 23.6977°E)
Time: 21:39:11
(UTC+00:00)

Cosmos 2026 Rocket - Pass Details

Date: 17 November 2025
Orbit: 938 x 1000 km, 82.9° (Epoch: 11 December)

Event Time Altitude Azimuth Distance (km) Brightness Sun altitude
Rises 17:53:14 0° 348° (NNW) 3,613 7.1 -31.7°
Reaches altitude 10° 17:55:45 10° 344° (NNW) 2,670 6.4 -32.2°
Maximum altitude 18:01:40 56° 268° (W) 1,126 4.5 -33.4°
Drops below altitude 10° 18:07:39 10° 192° (SSW) 2,689 6.4 -34.5°
Sets 18:10:12 0° 188° (S) 3,641 7.1 -35.0°
